Saturday, August 23, 2014
11:33 UTC
  |  Log In   |  Register Free
Airport Search:

Carmi Municipal Airport
(KCUL)

Carmi Municipal Airport Diagram
No Airport Diagram Available

FAA data valid effective July 24, 2014 until September 18, 2014 (unless otherwise noted).

 
 
 
 
 
 
 
 
 
 
 
 
 
 

Current Aviation Weather for Carmi Municipal Airport (KCUL)

The most recent METAR observation for KCUL was updated at: 1755 UTC
METAR Summary (Translated METAR)
KCUL
281755Z AUTO 31010G15KT 10SM SCT034 SCT040 BKN049 26/18 A3005 RMK AO2
KFWC
(22.1 nm NW from KCUL)
281835Z AUTO 32007KT 290V350 10SM SCT045 SCT055 26/17 A3006 RMK AO2
TAF
No TAF information found within 50 nm of KCUL
  Airport Weather Conditions for KCUL

 Current Weather at CUL
75° F
Fog/Mist
North winds at 0.0 mph
CUL NOAA Radar

Pressure: 29.96 in
Humidity: 100%
Wind: Calm
Dew Point: 75.2°F
Visibility: 3.00 mi


Airport Weather Forecast for KCUL

Translated METAR and TAF for KCUL
Translated METAR for KCUL (1126 UTC 23 August 2014)
found at http://aviationweather.gov/adds/metars/
 
METAR text: KCUL 231116Z AUTO 00000KT 5SM BR CLR 25/24 A2996 RMK AO2
Conditions at: KCUL (CARMI MUNI , IL, US) observed 1116 UTC 23 August 2014
Temperature: 25.0°C (77°F)
Dewpoint: 24.0°C (75°F) [RH = 94%]
Pressure (altimeter): 29.96 inches Hg (1014.6 mb)
Winds: calm
Visibility: 5 miles (8 km)
Ceiling: at least 12,000 feet AGL
Clouds: sky clear below 12,000 feet AGL
Weather: BR  (mist)
Translated TAF for KCUL

There is no translated TAF available for this airport

Find All Airport Services Find A Hotel Find A Rental Car Find A Golf Course Find A Restaurant $100 Hamburger



FBO's on the Field
FBO Company Facility Photos Services Transportation Aviation Fuel Prices: Prices include tax
Catering Weather Repair Courtesy Rental Type 100LL JetA JetA+ MOGAS 8087
 
Carmi Municipal Airport

This FBO has not yet been rated
FS:Shell
Last Updated: Jul-17
Login to update fuel prices
SS:
Contact Carmi Municipal AirportMore FBO Information
 
Add another FBO Facility Photos Catering Weather Repair Courtesy Rental Type 100LL JetA JetA+ MOGAS 8087
Services Transportation Aviation Fuel Prices: Prices include tax


GlobalAir.com Airport Resource Center model-print
model-print
model-print
model-print